Tracking 28790 objects as of 19-Apr-2024
HD Live streaming from Space Station
objects crossing your sky now

FALCON 9 R/B

Track FALCON 9 R/B now!


NORAD ID: 43464
Int'l Code: 2018-044B
Perigee: 325.8 km
Apogee: 34,057.6 km
Inclination: 18.8 °
Period: 599.9 minutes
Semi major axis: 23562 km
RCS: Unknown
Launch date: May 11, 2018
Source: United States (US)
Launch site: AIR FORCE EASTERN TEST RANGE (AFETR)

Note: This is a ROCKET BODY
Your satellite tracking list
Your tracking list is empty




NASA's NSSDC Master Catalog

Two Line Element Set (TLE):
1 43464U 18044B   24109.38773252  .00002604  00000-0  23922-2 0  9993
2 43464  18.7645 211.4376 7157898 336.9493   2.7537  2.40030154 50581
Source of the keplerian elements: AFSPC